Location: Country Club Park
(34.0503°N, 118.3212°W)
Time: 00:56:02
(UTC+00:00)

FALCON 9 DEB - Pass Details

Date: 26 June 2022
Orbit: 389 x 399 km, 53.0° (Epoch: 16 August)

Event Time Altitude Azimuth Distance (km) Brightness Sun altitude
Rises 12:02:35 0° 312° (NW) 2,343 6.7 -8.0°
Reaches altitude 10° 12:04:42 10° 308° (NW) 1,477 5.7 -7.7°
Maximum altitude 12:07:58 61° 228° (SW) 469 3.0 -7.1°
Drops below altitude 10° 12:11:12 10° 147° (SSE) 1,460 5.8 -6.6°
Sets 12:13:16 0° 144° (SE) 2,312 6.9 -6.2°
